Theta_e
335 332 323 317 305 300 297 298 302 304 303 308 314 312 314 316 314 310 329 337 340 341 345 347 348 350 349 347 346 345 341 339 338 339 338 342 344 343 340 339 340 338 337 337 336 336 337 337 336
332 331 319 311 300 293 294 300 305 308 310 312 313 313 314 315 324 325 327 338 341 342 344 346 346 348 348 347 344 342 339 338 338 337 338 341 343 340 340 338 338 337 335 335 335 336 336 335 334
330 327 312 304 299 295 295 303 307 310 313 310 310 315 316 318 325 326 331 338 340 341 343 344 346 348 348 346 344 342 342 340 338 338 339 340 340 340 340 337 337 336 335 335 335 335 335 334 333
325 319 313 302 298 300 301 305 311 309 312 314 310 312 320 326 328 330 334 337 337 340 342 343 346 348 347 346 345 343 342 341 337 336 338 341 342 341 341 338 336 335 334 335 335 334 334 334 333
321 312 302 299 301 302 304 309 312 310 309 309 310 309 317 326 331 332 332 335 338 338 341 343 345 346 346 345 345 343 342 341 340 338 337 341 338 340 339 337 335 334 334 333 333 333 333 333 332
313 310 300 297 302 304 306 309 310 309 308 309 307 309 317 328 328 329 332 332 338 338 341 342 338 341 343 344 343 342 342 341 340 339 336 335 338 339 338 336 335 333 333 333 332 332 333 333 331
310 306 300 301 301 306 307 309 306 307 308 309 310 306 319 323 328 330 330 331 336 337 339 339 339 337 336 339 340 341 341 340 339 339 336 332 333 336 334 334 334 333 333 332 332 332 332 331 330
310 307 302 301 300 302 308 308 309 309 310 314 313 306 313 323 328 330 329 329 332 335 337 336 336 336 336 335 333 335 337 337 337 335 332 330 329 330 329 328 332 335 333 333 333 332 331 331 329
313 303 299 302 303 304 307 306 308 310 311 311 315 316 320 327 328 327 326 327 329 331 333 335 335 334 334 333 331 330 332 332 331 329 327 325 325 325 326 327 330 335 335 332 332 332 331 330 328
308 302 303 309 308 307 309 307 308 306 306 308 312 319 327 327 326 324 323 324 325 326 328 332 333 333 332 334 328 330 332 331 329 327 325 325 324 324 326 324 327 330 330 333 333 331 330 326 320
310 303 308 310 310 309 309 307 309 305 304 308 309 316 324 324 324 324 323 324 325 327 327 328 329 328 331 329 327 328 328 327 327 325 325 325 323 321 322 320 322 321 320 322 325 325 323 320 319
306 310 310 312 311 309 308 312 310 307 306 311 310 318 323 322 324 324 324 324 324 326 327 328 327 326 325 328 327 327 328 326 325 326 325 324 322 320 320 318 319 320 320 318 318 317 318 319 319
305 307 311 311 310 309 312 309 309 310 314 316 314 320 322 322 323 324 325 324 324 325 327 327 326 325 325 326 326 325 325 325 324 326 327 325 322 320 319 319 318 318 319 318 318 318 319 318 319
305 306 307 310 308 311 309 309 309 311 315 314 314 313 317 322 322 321 322 324 324 326 326 328 327 326 326 323 324 324 326 325 324 323 325 324 323 322 321 319 318 317 318 318 317 317 317 317 318
307 301 303 304 305 306 310 304 306 312 314 313 314 312 309 322 323 322 324 325 326 327 328 328 327 326 325 324 323 323 324 325 324 323 324 323 323 322 321 320 317 317 317 317 316 316 317 316 317
300 299 294 302 304 304 305 296 304 309 307 309 311 313 310 310 322 324 324 324 327 328 327 328 329 326 325 325 324 323 322 322 324 323 323 323 323 321 320 319 318 318 317 315 314 314 314 315 315
295 288 292 297 304 302 302 296 304 308 306 303 305 311 312 310 312 322 324 324 327 329 329 328 329 326 325 324 324 322 321 320 321 321 321 322 323 322 320 319 318 319 317 316 314 313 313 312 313
289 291 292 292 298 301 299 298 301 305 305 304 304 306 310 313 311 317 323 325 327 328 329 329 330 328 326 324 323 322 321 320 320 320 321 321 322 322 321 319 318 318 316 315 314 313 312 312 312
295 292 292 295 300 297 295 297 299 303 303 303 304 304 307 310 312 316 322 325 325 327 328 328 328 329 326 324 322 322 321 322 321 321 321 322 322 322 320 319 318 319 318 316 315 313 312 312 314
296 292 292 294 299 296 295 295 299 301 300 302 303 303 304 309 311 313 319 323 324 325 327 328 329 328 327 327 326 325 324 323 323 323 321 321 321 321 320 319 319 319 319 318 317 314 312 313 315
295 293 291 292 296 297 295 292 295 299 302 303 305 304 303 306 310 310 315 320 323 324 325 327 329 328 329 328 327 324 323 322 322 322 322 321 321 321 320 319 320 320 320 320 319 317 315 313 313
290 297 296 294 293 286 294 283 291 295 298 300 303 304 305 306 307 312 310 317 322 324 326 327 328 329 329 328 326 325 323 321 323 324 324 323 322 321 321 320 320 320 321 321 320 320 319 316 314
294 298 296 294 291 290 290 285 289 295 295 298 299 301 303 306 307 309 311 312 321 324 324 325 327 328 329 328 328 326 325 326 326 325 323 323 323 323 321 320 319 320 320 321 320 319 319 319 318
300 296 294 293 292 285 290 288 288 292 295 296 300 301 301 302 305 308 311 312 315 322 323 324 325 326 329 328 328 327 326 325 324 323 322 323 324 323 323 322 321 320 320 320 319 320 320 320 319
297 291 284 283 282 282 289 287 291 294 296 297 298 300 301 301 303 305 309 310 311 315 321 322 323 324 327 328 327 328 327 327 326 324 323 323 323 324 324 323 321 321 320 320 320 319 320 320 320
292 291 282 276 279 281 289 284 288 298 301 302 302 301 300 303 302 303 305 307 309 311 315 321 321 323 325 327 327 328 328 328 327 327 326 325 325 326 327 325 324 323 322 320 320 320 320 322 321
290 290 293 285 279 283 283 288 294 297 296 296 298 299 298 300 301 302 304 304 305 308 311 315 320 323 324 325 326 327 328 328 327 327 327 326 327 327 327 327 325 324 323 322 321 321 321 322 323
293 296 287 287 278 277 281 281 285 290 293 295 296 296 297 299 300 301 302 303 304 305 307 310 314 319 321 324 325 325 326 327 328 328 327 326 327 327 326 326 326 325 324 323 323 323 323 323 323
290 291 291 288 287 278 276 280 289 292 294 294 295 297 296 298 299 300 301 302 303 303 304 307 310 312 314 318 322 323 324 326 327 327 327 327 327 326 326 326 326 325 324 324 323 323 324 322 322
294 291 292 285 282 285 283 282 293 294 296 294 292 294 297 298 298 299 300 301 301 301 302 303 305 307 310 313 314 318 320 322 324 325 327 327 326 327 326 326 326 325 325 324 323 323 323 321 320
Wind_Speed
13 15 3 5 6 6 2 1 2 4 3 2 2 6 8 4 4 4 2 14 14 11 8 9 11 13 13 14 15 13 12 12 12 11 12 8 13 12 15 15 10 14 12 13 13 14 15 14 13
13 9 5 3 5 5 3 2 7 4 4 4 3 4 2 3 3 6 8 14 14 12 9 8 11 12 12 15 15 12 12 12 12 11 10 7 13 12 14 15 11 11 12 12 12 13 13 13 11
18 3 3 3 3 3 4 4 6 2 4 2 3 5 4 3 4 7 8 15 14 11 10 9 12 13 13 14 14 12 12 11 11 11 10 7 14 9 15 13 11 10 12 12 12 13 12 11 9
5 5 4 4 3 2 6 7 8 4 5 5 3 6 4 2 11 8 11 14 12 11 10 10 12 13 14 13 15 14 11 11 11 11 9 7 13 9 12 13 11 10 10 11 12 12 11 9 7
5 3 3 3 2 4 4 8 8 6 5 1 2 4 5 3 9 12 10 11 14 10 9 9 11 12 13 14 15 14 13 12 10 11 10 9 10 10 10 13 11 10 9 10 11 10 9 7 5
5 2 3 1 4 3 3 6 8 6 5 3 2 6 4 7 10 8 8 11 13 12 9 8 9 10 12 13 14 14 14 14 11 9 9 9 7 10 8 10 10 9 8 9 9 9 8 5 4
4 3 3 3 1 3 0 3 4 6 6 3 3 3 3 5 8 8 8 9 12 12 10 7 6 7 9 10 11 12 13 12 13 12 10 10 9 8 8 8 7 10 8 8 8 8 6 5 3
4 5 4 4 1 1 4 2 3 6 3 2 2 3 5 6 9 8 7 8 11 11 10 9 7 6 5 6 9 10 11 11 11 12 9 8 8 5 7 7 6 9 8 8 7 7 5 4 2
2 4 1 4 4 1 1 3 3 3 5 2 5 5 4 11 10 7 6 6 8 9 10 9 9 8 7 6 5 8 10 12 12 11 10 8 5 5 5 4 7 6 8 7 7 6 5 4 3
4 4 8 6 6 5 5 2 6 2 1 2 2 3 11 12 9 11 8 9 10 8 8 11 10 9 8 7 6 5 6 5 6 6 7 5 6 5 5 4 7 7 6 6 7 6 6 5 2
4 5 4 5 2 5 7 2 2 3 4 4 7 8 10 6 9 9 8 7 11 11 6 9 11 8 10 7 5 3 3 3 4 7 7 5 4 4 4 3 3 3 4 2 3 3 3 4 4
5 5 4 5 2 2 1 6 6 1 5 6 2 13 9 11 14 13 12 9 9 11 10 10 9 8 8 7 6 6 5 4 4 5 7 5 3 5 4 4 5 4 3 5 4 3 5 6 6
5 5 7 6 1 2 2 2 2 9 10 10 6 8 14 11 12 10 11 8 8 10 12 12 10 8 7 9 7 6 7 6 6 5 6 4 5 5 5 4 4 4 4 5 5 5 5 5 5
4 9 8 8 5 3 4 5 2 3 4 9 9 7 10 13 15 6 9 13 10 8 10 12 13 11 9 7 8 6 8 8 6 5 6 7 5 5 5 5 5 5 5 5 5 5 5 5 4
5 4 6 4 2 3 5 6 8 10 8 12 15 10 9 15 11 15 16 15 15 11 10 12 12 11 11 10 8 6 6 7 7 6 8 8 7 6 6 5 5 5 5 6 5 5 3 3 3
5 1 5 3 5 5 6 14 5 8 7 13 14 14 8 11 15 17 13 13 15 13 14 9 11 12 11 11 8 7 6 6 6 6 6 9 9 7 6 5 5 5 4 4 4 4 4 4 4
3 3 5 6 6 4 9 3 7 12 8 10 10 12 12 11 11 15 15 14 15 16 15 12 11 11 13 10 9 7 7 6 6 5 6 9 10 10 6 5 5 6 5 5 5 5 4 3 4
4 10 5 7 5 10 16 17 10 10 9 11 9 9 11 13 17 13 16 15 12 14 14 13 12 12 13 8 6 5 5 5 6 7 8 10 9 11 9 6 7 6 4 5 4 5 4 4 5
8 5 11 7 14 9 11 15 14 11 8 9 10 9 10 11 10 11 16 17 14 13 15 16 16 15 12 10 9 9 11 8 7 8 11 12 11 13 11 8 7 7 8 8 8 5 6 5 3
11 10 13 4 6 9 10 16 9 10 7 7 10 11 11 9 8 9 14 14 16 17 16 16 17 16 15 12 11 9 9 7 9 8 9 12 12 13 12 11 10 9 7 7 8 6 3 4 5
14 18 4 4 5 6 4 7 5 7 8 11 14 12 9 12 12 9 12 15 16 16 16 16 17 17 18 17 9 5 4 3 6 8 10 12 12 13 14 13 11 10 9 9 9 8 9 7 4
14 7 6 3 1 5 3 8 7 6 12 10 12 14 15 16 11 9 10 14 16 17 17 18 16 18 17 18 14 17 14 14 13 12 11 11 12 14 13 12 13 11 10 11 10 9 10 6 8
12 9 7 5 5 2 9 3 7 11 15 11 9 11 12 16 15 15 9 11 14 16 17 18 17 16 16 17 18 15 16 14 10 10 12 13 12 14 14 14 13 14 11 13 12 11 11 9 9
6 5 3 2 2 9 21 9 8 12 10 6 9 10 7 10 10 11 10 7 10 13 14 15 17 17 15 16 19 19 20 16 12 12 11 11 11 11 16 16 16 15 13 14 12 12 13 12 10
10 9 4 7 8 8 6 9 19 7 8 7 10 10 7 3 4 6 7 8 8 12 16 13 14 16 17 17 17 20 19 17 18 16 13 13 11 11 16 18 16 14 16 15 13 12 13 12 12
9 13 6 9 6 6 7 8 10 13 20 21 17 11 5 7 4 5 6 3 6 8 11 15 13 17 17 19 20 19 21 14 14 15 13 12 13 13 15 16 18 19 17 16 14 11 11 13 11
5 12 8 4 2 2 4 7 10 10 8 2 4 8 8 8 9 9 9 6 7 8 4 7 11 14 15 17 17 17 17 19 17 18 15 13 14 13 15 17 18 17 17 16 16 12 14 13 13
6 9 5 4 6 9 5 4 7 2 6 8 9 8 6 7 9 9 9 10 9 8 8 4 8 11 12 14 14 15 17 17 18 16 17 17 17 16 14 16 17 17 17 17 16 14 14 15 12
6 4 2 1 5 5 3 7 9 8 6 8 6 5 4 5 5 6 7 7 7 8 8 8 7 6 7 7 11 11 13 15 16 16 17 18 17 17 17 17 17 17 17 17 16 17 16 17 14
14 14 8 5 7 4 3 7 3 9 9 6 5 5 5 3 2 2 4 6 7 8 9 9 8 8 9 8 8 9 10 12 14 17 18 18 18 18 18 17 18 18 18 17 19 18 16 17 15
Wind_Direction
321 312 309 43 53 62 64 22 94 70 57 18 50 58 130 67 65 115 118 122 125 123 126 126 125 122 114 110 90 93 101 98 92 101 106 103 105 99 102 100 92 100 91 92 92 94 90 90 86
317 314 22 63 74 68 309 116 87 75 135 106 66 44 64 104 93 121 111 128 128 131 130 131 127 123 116 110 112 110 107 106 105 112 107 86 98 94 108 103 95 96 97 97 98 96 94 91 85
315 270 57 75 81 115 133 129 127 31 29 30 90 56 82 95 107 138 147 135 134 136 134 135 132 128 124 121 123 121 116 117 119 115 128 114 99 96 112 101 100 94 99 104 105 100 96 91 84
324 347 13 77 116 25 117 157 133 109 351 15 96 83 55 342 155 156 148 139 125 129 132 135 136 136 133 129 124 125 129 118 124 128 142 120 109 92 113 108 106 103 106 106 107 100 95 90 76
4 52 22 348 62 131 103 138 140 147 160 315 36 147 115 51 121 135 141 120 126 125 129 136 143 142 140 140 135 136 130 127 122 140 139 121 122 111 117 111 113 110 112 111 104 100 102 89 58
356 45 42 303 17 126 88 134 136 134 157 179 48 113 180 145 129 156 139 128 134 135 136 137 144 150 152 150 145 146 144 139 130 123 138 141 111 119 94 113 113 115 115 115 111 111 104 94 52
101 43 258 315 257 89 75 124 85 151 146 197 180 84 166 162 165 159 145 136 139 137 137 135 141 155 155 156 152 154 152 147 136 128 135 155 156 119 111 105 113 119 126 129 128 123 125 120 67
106 95 300 286 242 55 173 85 127 96 191 149 94 164 184 201 166 152 145 142 139 142 143 150 149 151 155 160 160 160 153 148 140 130 124 114 160 137 145 137 146 136 135 135 136 139 140 117 84
124 84 311 277 310 263 276 122 347 159 121 182 171 134 187 141 142 146 156 141 146 149 157 158 159 164 163 162 166 165 162 155 147 140 146 144 149 154 143 188 160 110 139 145 149 158 154 161 209
113 144 204 214 327 294 195 189 147 106 65 269 87 50 134 141 155 173 178 175 161 168 168 163 168 170 165 165 158 168 164 163 164 156 157 173 165 165 153 141 136 134 138 151 172 177 189 203 229
174 190 247 271 135 46 336 102 328 104 257 228 211 181 163 158 171 176 201 196 173 172 166 160 172 167 169 157 160 154 159 166 177 167 169 187 155 157 142 152 147 153 176 187 187 216 225 225 229
181 236 249 287 19 78 71 321 344 19 248 292 315 178 176 176 186 188 193 196 179 178 177 169 170 164 160 159 169 164 170 182 184 185 187 166 162 159 161 169 184 189 193 198 209 212 229 238 242
197 219 242 272 94 226 88 273 244 292 294 292 301 177 184 194 201 196 190 190 185 183 186 174 166 170 163 163 175 173 181 186 193 190 194 174 171 175 169 190 186 193 195 202 211 219 225 230 238
218 222 243 241 262 246 176 264 112 242 277 298 294 229 208 197 203 190 198 196 193 184 183 181 177 171 171 166 182 183 189 188 182 182 191 186 175 177 189 189 201 203 196 208 204 214 221 226 222
241 251 287 226 231 240 191 259 232 245 258 261 272 268 234 212 194 206 205 200 196 199 184 187 177 177 176 183 184 185 189 186 188 184 185 184 182 192 188 190 201 204 203 209 215 233 230 233 230
192 170 230 222 218 255 172 259 241 264 262 257 250 257 239 230 205 207 209 202 196 189 192 168 189 183 183 187 187 192 189 181 194 193 185 189 191 188 195 191 200 204 203 202 202 214 230 231 234
245 186 211 270 215 239 190 268 237 236 253 270 264 251 247 235 230 207 201 201 194 186 184 185 178 183 189 188 190 192 191 191 187 187 191 197 195 195 189 201 200 196 198 200 204 218 195 216 241
196 210 221 211 217 224 245 254 253 243 257 271 267 265 264 254 229 206 196 200 195 190 185 189 197 188 188 177 180 192 189 198 190 198 198 194 199 199 199 204 204 193 195 203 201 205 210 205 217
183 203 212 231 235 231 238 251 244 247 229 251 264 264 264 259 235 210 197 194 187 191 194 195 194 194 181 186 189 200 208 202 204 205 203 203 200 202 201 205 202 202 203 206 203 189 207 238 218
223 224 238 259 246 198 251 258 219 231 236 223 261 262 256 260 276 216 204 192 188 193 201 203 205 192 192 194 199 202 202 212 210 209 209 209 206 203 205 205 209 205 205 206 206 192 200 228 187
224 226 226 228 321 327 327 273 227 262 261 259 256 257 240 238 247 241 211 198 192 192 195 209 211 196 196 195 191 189 185 191 205 211 212 213 207 203 204 206 208 205 203 214 209 201 202 223 216
217 177 206 214 297 251 52 282 230 234 256 258 250 251 250 248 247 231 214 208 196 198 194 201 209 207 201 193 193 197 204 209 215 213 219 216 210 212 206 205 205 206 209 217 211 202 210 194 221
223 158 189 175 226 223 256 292 294 206 249 254 259 248 250 245 236 240 220 208 207 200 197 202 199 210 208 202 200 200 208 213 207 210 208 207 211 213 208 205 204 208 212 217 213 209 208 206 216
149 86 86 56 153 238 243 196 243 241 253 237 248 265 266 283 259 258 249 206 202 208 208 201 202 207 208 212 213 213 213 212 208 206 205 209 210 209 211 208 211 210 212 215 214 213 212 210 213
171 137 196 215 220 232 221 187 246 246 278 248 244 270 254 268 7 262 244 232 213 200 205 202 202 211 206 209 215 222 228 222 220 214 215 205 210 212 212 206 208 211 213 215 214 214 217 211 211
187 186 174 205 191 217 156 211 256 236 236 248 254 262 333 305 315 288 280 273 284 244 216 205 202 216 210 211 217 214 218 221 228 226 228 226 216 216 211 208 209 211 210 212 212 215 215 215 216
186 214 216 67 59 99 215 263 308 259 233 277 310 28 12 18 25 8 7 23 347 347 304 237 218 222 219 218 222 223 222 223 227 224 222 228 227 226 218 211 209 210 211 211 209 213 215 212 215
165 157 202 193 191 225 238 258 234 163 77 75 79 66 40 19 20 11 6 0 352 347 319 268 233 236 236 228 226 228 228 228 229 227 226 227 230 225 220 213 210 210 209 208 206 212 214 211 215
156 185 156 120 188 193 188 247 203 239 136 133 108 119 110 70 27 5 354 339 321 322 330 319 311 275 264 249 243 238 233 232 233 230 230 228 228 227 222 214 211 211 210 207 206 212 211 212 208
202 197 163 175 190 195 178 257 113 135 159 117 29 13 102 135 147 270 279 302 327 323 314 304 303 299 279 263 244 238 236 236 234 232 231 229 228 227 225 218 214 212 210 207 207 209 208 209 202